When you browse on this site, cookies collect data to enhance your experience and personalize the content and advertising you see.
Visit our Privacy Policy to learn more. By continuing to use the site, you agree to this use of cookies and data.
  • In Hungary
  • List of Countries
  • For 7 days
  • Water Temperature
  • Weather Map
  • News
  • Weather Widgets
  • user-avatar
    Login

    Hourly Weather Lelyaevka

    Today, 24 January, Friday

    Time Temperature Precipitation Wind Pressure Humidity
    00:00 -14°C° 0 mm 3 mps 736 mmHg 95%
    01:00 -14°C° 0 mm 3 mps 737 mmHg 95%
    02:00 -15°C° 0 mm 4 mps 737 mmHg 95%
    03:00 -15°C° 0 mm 4 mps 738 mmHg 96%
    04:00 -16°C° 0 mm 4 mps 738 mmHg 96%
    05:00 -17°C° 0 mm 4 mps 738 mmHg 96%
    06:00 -17°C° 0 mm 4 mps 739 mmHg 96%
    07:00 -17°C° 0 mm 4 mps 739 mmHg 96%
    08:00 -18°C° 0 mm 4 mps 740 mmHg 96%
    09:00 -18°C° 0 mm 4 mps 740 mmHg 95%
    10:00 -17°C° 0 mm 4 mps 740 mmHg 95%
    11:00 -16°C° 0 mm 4 mps 740 mmHg 94%
    12:00 -15°C° 0 mm 4 mps 740 mmHg 93%
    13:00 -15°C° 0 mm 4 mps 740 mmHg 93%
    14:00 -15°C° 0 mm 5 mps 740 mmHg 93%
    15:00 -15°C° 0 mm 5 mps 740 mmHg 93%
    16:00 -15°C° 0 mm 5 mps 739 mmHg 93%
    17:00 -14°C° 0 mm 5 mps 739 mmHg 93%
    18:00 -15°C° 0 mm 6 mps 738 mmHg 94%
    19:00 -14°C° 0.2 mm 6 mps 738 mmHg 94%
    20:00 -13°C° 0.2 mm 7 mps 737 mmHg 94%
    21:00 -12°C° 0.2 mm 7 mps 737 mmHg 94%
    22:00 -11°C° 0.1 mm 7 mps 736 mmHg 93%
    23:00 -11°C° 0.1 mm 7 mps 735 mmHg 93%

    Tomorrow, 25 January, Saturday

    Time Temperature Precipitation Wind Pressure Humidity
    00:00 -9°C° 0.1 mm 7 mps 734 mmHg 93%
    01:00 -8°C° 0.5 mm 8 mps 733 mmHg 94%
    02:00 -8°C° 0.5 mm 8 mps 732 mmHg 94%
    03:00 -8°C° 0.5 mm 9 mps 731 mmHg 94%
    04:00 -6°C° 0.3 mm 9 mps 731 mmHg 95%
    05:00 -4°C° 0.3 mm 8 mps 731 mmHg 96%
    06:00 -2°C° 0.3 mm 8 mps 731 mmHg 97%
    07:00 -3°C° 0 mm 7 mps 731 mmHg 94%
    08:00 -3°C° 0 mm 7 mps 732 mmHg 91%
    09:00 -3°C° 0 mm 7 mps 732 mmHg 88%
    10:00 -3°C° 0 mm 7 mps 732 mmHg 90%
    11:00 -3°C° 0 mm 7 mps 732 mmHg 91%
    12:00 -3°C° 0 mm 7 mps 732 mmHg 92%
    13:00 -2°C° 0.1 mm 7 mps 732 mmHg 94%
    14:00 -2°C° 0.1 mm 7 mps 731 mmHg 96%
    15:00 -2°C° 0.1 mm 7 mps 731 mmHg 97%
    16:00 -2°C° 0.1 mm 8 mps 731 mmHg 97%
    17:00 -2°C° 0.1 mm 8 mps 730 mmHg 97%
    18:00 -4°C° 0.1 mm 8 mps 730 mmHg 96%
    19:00 -4°C° 0.2 mm 8 mps 729 mmHg 96%
    20:00 -4°C° 0.2 mm 8 mps 729 mmHg 96%
    21:00 -4°C° 0.2 mm 8 mps 728 mmHg 96%
    22:00 -4°C° 0.6 mm 8 mps 728 mmHg 92%
    23:00 -4°C° 0.6 mm 9 mps 727 mmHg 88%

    Day after tomorrow, 26 January, Sunday

    Time Temperature Precipitation Wind Pressure Humidity
    00:00 -4°C° 0.6 mm 9 mps 727 mmHg 84%
    01:00 -5°C° 0.1 mm 9 mps 727 mmHg 86%
    02:00 -6°C° 0.1 mm 9 mps 727 mmHg 87%
    03:00 -8°C° 0.1 mm 10 mps 728 mmHg 89%
    04:00 -8°C° 0 mm 9 mps 729 mmHg 89%
    05:00 -9°C° 0 mm 9 mps 729 mmHg 89%
    06:00 -8°C° 0 mm 8 mps 730 mmHg 89%
    07:00 -10°C° 0.1 mm 9 mps 730 mmHg 89%
    08:00 -10°C° 0.1 mm 9 mps 731 mmHg 89%
    09:00 -10°C° 0.1 mm 9 mps 731 mmHg 89%
    10:00 -9°C° 0.1 mm 9 mps 732 mmHg 89%
    11:00 -9°C° 0.1 mm 9 mps 733 mmHg 89%
    12:00 -8°C° 0.1 mm 10 mps 734 mmHg 89%
    13:00 -8°C° 0.1 mm 9 mps 735 mmHg 88%
    14:00 -8°C° 0.1 mm 9 mps 736 mmHg 87%
    15:00 -7°C° 0.1 mm 8 mps 737 mmHg 86%
    16:00 -8°C° 0 mm 8 mps 737 mmHg 87%
    17:00 -8°C° 0 mm 7 mps 738 mmHg 87%
    18:00 -8°C° 0 mm 7 mps 739 mmHg 88%
    19:00 -9°C° 0 mm 6 mps 740 mmHg 90%
    20:00 -10°C° 0 mm 6 mps 740 mmHg 91%
    21:00 -10°C° 0 mm 6 mps 741 mmHg 92%
    22:00 -11°C° 0 mm 6 mps 741 mmHg 92%
    23:00 -11°C° 0 mm 6 mps 741 mmHg 92%

    27 January, Monday

    Time Temperature Precipitation Wind Pressure Humidity
    00:00 -12°C° 0 mm 5 mps 741 mmHg 92%
    01:00 -12°C° 0 mm 5 mps 741 mmHg 92%
    02:00 -12°C° 0 mm 5 mps 741 mmHg 92%
    03:00 -12°C° 0 mm 5 mps 741 mmHg 92%
    04:00 -11°C° 0.1 mm 5 mps 741 mmHg 93%
    05:00 -10°C° 0.1 mm 5 mps 741 mmHg 94%
    06:00 -8°C° 0.1 mm 5 mps 741 mmHg 94%
    07:00 -8°C° 0.1 mm 5 mps 741 mmHg 94%
    08:00 -8°C° 0.1 mm 5 mps 741 mmHg 94%
    09:00 -7°C° 0.1 mm 5 mps 741 mmHg 94%
    10:00 -6°C° 0.1 mm 6 mps 741 mmHg 93%
    11:00 -6°C° 0.1 mm 6 mps 741 mmHg 93%
    12:00 -6°C° 0.1 mm 7 mps 741 mmHg 92%
    13:00 -4°C° 0.1 mm 7 mps 741 mmHg 93%
    14:00 -3°C° 0.1 mm 7 mps 740 mmHg 94%
    15:00 -3°C° 0.1 mm 7 mps 740 mmHg 95%
    16:00 -2°C° 0.1 mm 7 mps 741 mmHg 96%
    17:00 -2°C° 0.1 mm 7 mps 741 mmHg 97%
    18:00 -2°C° 0.1 mm 6 mps 741 mmHg 98%
    19:00 -2°C° 0 mm 6 mps 741 mmHg 98%
    20:00 -2°C° 0 mm 6 mps 742 mmHg 97%
    21:00 -2°C° 0 mm 6 mps 742 mmHg 97%
    22:00 -2°C° 0 mm 6 mps 742 mmHg 97%
    23:00 -3°C° 0 mm 6 mps 742 mmHg 96%

    28 January, Tuesday

    Time Temperature Precipitation Wind Pressure Humidity
    00:00 -3°C° 0 mm 6 mps 742 mmHg 96%
    01:00 -2°C° 0.1 mm 5 mps 742 mmHg 96%
    02:00 -2°C° 0.1 mm 5 mps 742 mmHg 96%
    03:00 -4°C° 0.1 mm 5 mps 742 mmHg 96%
    04:00 -3°C° 0 mm 4 mps 742 mmHg 96%
    05:00 -3°C° 0 mm 4 mps 742 mmHg 95%
    06:00 -4°C° 0 mm 4 mps 742 mmHg 95%
    07:00 -4°C° 0 mm 4 mps 742 mmHg 95%
    08:00 -4°C° 0 mm 4 mps 742 mmHg 95%
    09:00 -4°C° 0 mm 4 mps 742 mmHg 95%
    10:00 -4°C° 0 mm 4 mps 742 mmHg 95%
    11:00 -3°C° 0 mm 4 mps 742 mmHg 94%
    12:00 -3°C° 0 mm 4 mps 743 mmHg 94%
    13:00 -3°C° 0 mm 4 mps 742 mmHg 93%
    14:00 -3°C° 0 mm 4 mps 742 mmHg 93%
    15:00 -2°C° 0 mm 3 mps 742 mmHg 92%
    16:00 -2°C° 0 mm 3 mps 743 mmHg 93%
    17:00 -2°C° 0 mm 3 mps 743 mmHg 93%
    18:00 -3°C° 0 mm 2 mps 743 mmHg 94%
    19:00 -3°C° 0 mm 2 mps 743 mmHg 95%
    20:00 -3°C° 0 mm 2 mps 743 mmHg 95%
    21:00 -3°C° 0 mm 2 mps 744 mmHg 96%
    22:00 -3°C° 0 mm 2 mps 744 mmHg 96%
    23:00 -3°C° 0 mm 2 mps 744 mmHg 96%

    29 January, Wednesday

    Time Temperature Precipitation Wind Pressure Humidity
    00:00 -3°C° 0 mm 2 mps 744 mmHg 97%
    01:00 -3°C° 0.1 mm 2 mps 744 mmHg 97%
    02:00 -4°C° 0.1 mm 2 mps 744 mmHg 97%
    03:00 -4°C° 0.1 mm 2 mps 744 mmHg 97%
    04:00 -4°C° 0.1 mm 2 mps 744 mmHg 97%
    05:00 -4°C° 0.1 mm 2 mps 744 mmHg 97%
    06:00 -4°C° 0.1 mm 2 mps 744 mmHg 97%
    07:00 -4°C° 0.1 mm 2 mps 745 mmHg 97%
    08:00 -4°C° 0.1 mm 2 mps 745 mmHg 97%
    09:00 -4°C° 0.1 mm 2 mps 745 mmHg 97%
    10:00 -4°C° 0 mm 2 mps 745 mmHg 97%
    11:00 -3°C° 0 mm 2 mps 745 mmHg 97%
    12:00 -2°C° 0 mm 3 mps 745 mmHg 96%
    13:00 -2°C° 0 mm 3 mps 745 mmHg 96%
    14:00 -2°C° 0 mm 3 mps 745 mmHg 96%
    15:00 -2°C° 0 mm 3 mps 745 mmHg 96%
    16:00 -2°C° 0 mm 3 mps 745 mmHg 97%
    17:00 -3°C° 0 mm 4 mps 745 mmHg 97%
    18:00 -4°C° 0 mm 4 mps 746 mmHg 97%
    19:00 -3°C° 0 mm 4 mps 745 mmHg 97%
    20:00 -3°C° 0 mm 4 mps 745 mmHg 96%
    21:00 -3°C° 0 mm 4 mps 745 mmHg 96%
    22:00 -3°C° 0 mm 4 mps 745 mmHg 96%
    23:00 -4°C° 0 mm 4 mps 745 mmHg 96%
    Show more